Location: Miles
(41.4492°N, 81.6087°W)
Time: 21:42:58
(UTC+00:00)

Courier 1B Rocket - Pass Details

Date: 14 September 2024
Orbit: 920 x 1201 km, 28.2° (Epoch: 09 October)

Event Time Altitude Azimuth Distance (km) Brightness Sun altitude
Rises 20:31:58 0° 214° (SW) 3,652 8.9 32.6°
Reaches altitude 10° 20:35:43 10° 193° (SSW) 2,758 8.0 32.0°
Maximum altitude 20:39:31 16° 158° (SSE) 2,412 7.3 31.4°
Drops below altitude 10° 20:43:28 10° 123° (ESE) 2,881 7.3 30.7°
Sets 20:47:30 0° 103° (ESE) 3,901 7.7 30.0°
